Home   Weather   Vatican City   Past weeks
Flag for Vatican City State

Past Weather in Vatican City, Vatican City State — Yesterday and Last 2 Weeks

Now
52 °F

Passing clouds.


Feels Like: 51 °F
Forecast: 70 / 44 °F
Wind: 3 mph from Northeast

Location: Rome / Ciampino

Current Time: Apr 9, 2020 at 9:29:41 am

Latest Report: Apr 9, 2020 at 8:50 am


Visibility: N/A

Pressure: 30.18 "Hg

Humidity: 82%

Dew Point: 46 °F

Location of Vatican CityLocation

Past Weather in Vatican City — Graph

°F

Vatican City Temperature Yesterday

Maximum temperature yesterday: 68 °F (at 1:50 pm)
Minimum temperature yesterday: 46 °F (at 7:50 am)
Average temperature yesterday: 61 °F

High & Low Weather Summary for the Past Weeks

 TemperatureHumidityPressure
High70 °F (Apr 4, 3:50 pm)94% (Mar 27, 1:20 am)30.30 "Hg (Mar 27, 1:20 am)
Low34 °F (Mar 25, 7:20 am)20% (Apr 4, 5:50 pm)29.50 "Hg (Mar 26, 1:20 pm)
Average54 °F59%29.96 "Hg
* Reported Mar 25 7:20 am — Apr 9 8:20 am, Vatican City. Weather by CustomWeather, © 2020

Note: Actual official high and low records may vary slightly from our data, if they occured in-between our weather recording intervals... More about our weather records

Vatican City Weather History for the Previous 24 Hours

Scroll right to see more
 ConditionsComfort  
Time TempWeatherWind HumidityBarometerVisibility
8:20 am
Thu, Apr 9
50 °FSunny.5 mph82%30.18 "Hg10 mi
7:50 am48 °FSunny.5 mph82%30.18 "Hg10 mi
7:20 am48 °FClear.3 mph82%30.18 "Hg6 mi
6:50 am48 °FClear.5 mph82%30.15 "Hg5 mi
10:50 pm
Wed, Apr 8
54 °FClear.2 mph88%30.21 "Hg10 mi
10:20 pm54 °FClear.7 mph94%30.21 "Hg10 mi
9:50 pm55 °FClear.6 mph82%30.21 "Hg10 mi
9:20 pm57 °FPassing clouds.7 mph77%30.21 "HgN/A
8:50 pm57 °FPassing clouds.7 mph77%30.18 "HgN/A
8:20 pm59 °FPassing clouds.5 mph72%30.18 "HgN/A
7:50 pm61 °FPassing clouds.6 mph63%30.18 "HgN/A
7:20 pm61 °FPassing clouds.6 mph55%30.18 "HgN/A
6:50 pm63 °FPassing clouds.6 mph52%30.18 "HgN/A
6:20 pm64 °FSunny.8 mph43%30.18 "Hg10 mi
5:50 pm66 °FPassing clouds.8 mph43%30.18 "HgN/A
5:20 pm66 °FPassing clouds.8 mph43%30.18 "HgN/A
4:50 pm66 °FPassing clouds.8 mph43%30.18 "HgN/A
4:20 pm66 °FPassing clouds.9 mph40%30.18 "HgN/A
3:20 pm68 °FPassing clouds.9 mph30%30.21 "HgN/A
2:50 pm68 °FSunny.12 mph30%30.21 "Hg10 mi
2:20 pm68 °FPassing clouds.9 mph33%30.24 "HgN/A
1:50 pm68 °FPassing clouds.8 mph33%30.24 "HgN/A
1:20 pm66 °FPassing clouds.7 mph35%30.24 "HgN/A
12:50 pm66 °FPassing clouds.9 mph35%30.24 "HgN/A
12:20 pm66 °FPassing clouds.8 mph35%30.27 "HgN/A
11:50 am66 °FPassing clouds.7 mph40%30.27 "HgN/A
11:20 am66 °FPassing clouds.7 mph37%30.27 "HgN/A
10:50 am64 °FPassing clouds.8 mph37%30.27 "HgN/A
10:20 am63 °FSunny.1 mph45%30.27 "Hg10 mi
9:50 am57 °FSunny.1 mph55%30.27 "Hg10 mi
9:20 am55 °FSunny.2 mph63%30.27 "Hg10 mi
Weather by CustomWeather, © 2020

See weather overview

Advertising